RH
65 54 58 58 53 35 39 50 91 99 99 100 100 99 97 100 98 99 92 58 54 48 44 54 80 92 94 58 34 33 38 36 34 30 22 17 16 16 16 15 17 22 24
58 63 88 80 66 61 56 48 52 99 99 99 100 100 99 99 99 100 90 59 54 46 43 64 88 97 70 45 41 39 38 37 35 25 19 17 17 17 16 16 18 23 26
98 97 95 80 86 59 62 67 69 78 98 98 98 98 99 99 99 94 76 54 52 51 56 83 97 77 47 46 44 40 39 36 29 24 19 18 17 17 16 18 20 22 27
94 94 79 68 78 66 70 74 78 78 85 95 98 99 98 99 99 93 60 49 75 60 74 96 72 47 47 46 43 41 37 33 26 21 19 18 17 17 17 18 22 26 29
93 94 90 83 86 84 82 70 88 98 92 95 98 96 98 96 98 95 72 61 67 91 96 88 56 52 47 44 36 34 35 32 25 22 19 18 18 17 17 20 26 30 37
66 79 89 100 96 98 93 98 91 98 98 98 100 98 97 93 98 87 50 82 97 97 93 81 56 50 46 42 35 38 34 32 28 21 19 19 18 18 19 24 29 40 44
59 73 88 97 100 99 100 98 98 97 99 100 98 99 100 97 97 96 96 96 96 94 86 62 55 53 46 38 34 37 36 32 30 24 20 19 19 18 22 28 39 46 46
45 59 98 100 98 100 99 99 99 97 97 96 96 97 96 96 96 96 96 96 92 95 93 77 57 51 47 40 42 42 37 33 29 22 21 20 19 20 25 34 46 46 49
64 77 94 97 97 97 96 96 96 96 96 97 97 96 98 98 97 96 97 92 89 95 79 66 62 67 54 43 43 38 29 28 24 21 21 20 20 22 29 40 44 45 45
81 92 96 95 96 96 96 96 96 96 96 97 96 97 97 97 96 96 93 96 92 74 79 84 88 86 65 74 50 44 38 41 48 30 22 21 21 25 36 41 37 36 36
80 90 96 95 95 96 96 96 96 96 96 96 96 97 96 96 95 95 95 87 87 92 95 96 92 96 97 97 93 63 73 93 44 29 26 22 24 37 61 60 43 35 33
64 82 97 96 97 96 96 96 96 96 96 96 96 96 95 95 96 96 91 97 98 96 98 98 97 96 96 97 85 94 95 34 42 58 49 51 44 55 64 75 73 49 35
55 78 88 96 96 96 96 97 96 96 96 96 95 94 91 97 95 92 99 100 96 96 100 100 95 97 100 100 99 95 68 57 45 47 66 47 55 51 74 77 77 54 40
60 65 88 94 98 95 95 95 96 96 96 90 91 96 98 96 87 88 93 94 93 96 93 88 94 97 95 98 96 94 93 67 31 45 70 81 55 72 79 82 58 36 64
70 65 76 95 96 97 95 95 96 97 99 90 97 99 95 93 96 100 99 93 93 94 93 94 96 98 98 98 94 79 64 42 36 46 90 82 82 81 79 55 34 53 74
63 73 70 85 100 100 99 96 97 97 94 95 97 99 98 95 96 95 91 90 94 98 98 98 99 99 98 94 86 81 77 78 90 94 93 90 64 53 57 36 52 79 77
66 73 75 93 100 100 100 97 96 96 96 96 97 98 96 98 88 87 89 92 89 89 88 88 91 93 97 97 95 94 95 91 86 84 66 38 51 53 42 77 81 75 72
67 77 76 94 98 98 100 97 96 96 96 94 96 99 98 98 88 82 81 79 81 78 80 87 89 88 90 89 87 81 81 81 76 34 44 55 52 58 80 79 76 74 74
88 66 80 94 98 97 99 98 97 96 96 97 96 98 98 95 81 73 79 83 89 87 86 84 85 83 82 80 77 74 74 56 29 49 65 57 61 78 82 77 75 74 73
100 84 88 97 97 97 98 98 97 96 96 97 99 99 93 82 70 64 71 78 82 78 76 71 75 76 74 71 70 53 36 38 64 71 55 54 72 82 80 77 74 73 74
100 100 96 96 96 97 97 97 97 97 96 98 100 95 91 84 76 81 85 80 74 71 68 68 69 72 68 46 39 40 69 76 63 49 54 78 83 81 80 78 75 73 73
100 97 97 97 97 96 96 96 96 96 98 100 98 93 84 86 80 93 84 75 72 70 67 61 54 48 44 44 47 63 72 56 56 69 82 83 81 79 77 77 77 77 76
96 96 96 96 96 96 96 96 97 100 100 98 91 87 88 82 78 80 74 69 62 54 49 49 49 48 46 54 70 67 57 64 79 82 82 80 77 76 74 76 78 79 79
96 96 96 96 96 85 92 93 96 100 94 86 89 88 87 83 78 74 69 61 55 52 51 52 58 67 72 71 64 65 76 84 82 80 76 74 74 75 75 79 83 79 77
96 96 96 96 96 95 84 84 87 86 80 88 91 88 86 85 85 78 64 55 54 55 57 68 74 71 66 66 74 80 80 80 78 75 74 73 75 76 76 82 82 76 58
96 96 96 96 96 96 96 96 95 86 87 95 92 89 88 91 88 72 59 58 64 72 74 73 70 70 76 82 80 77 79 75 70 70 72 74 77 79 82 83 78 54 31
Wind_Speed
50 51 54 49 36 38 43 38 43 49 52 50 52 59 51 56 54 52 49 47 44 44 44 39 38 38 28 29 29 26 25 24 21 18 17 17 16 18 17 18 17 17 20
47 50 50 52 38 36 38 40 37 42 49 45 47 53 63 61 57 54 51 50 46 46 45 41 47 36 27 30 30 25 22 26 17 15 16 17 16 17 17 18 20 14 19
37 44 47 41 35 36 38 39 34 43 41 50 54 51 56 57 62 48 50 48 49 48 45 43 41 24 31 30 28 24 25 22 19 17 17 17 17 17 18 18 21 21 18
37 38 45 36 35 36 36 39 42 46 47 46 44 47 57 53 53 46 51 51 48 48 41 41 26 28 28 29 25 24 22 21 19 18 17 17 18 19 18 18 19 21 20
19 24 33 36 39 35 35 40 48 46 48 43 42 37 53 49 48 44 48 48 48 43 41 28 28 30 31 26 24 24 24 21 19 19 19 19 19 18 19 19 18 21 21
22 27 26 28 37 31 38 30 38 40 38 43 41 41 48 51 44 47 50 56 42 43 34 32 33 30 27 26 25 24 22 21 20 20 20 18 18 19 20 19 19 19 19
22 33 35 25 30 30 30 27 33 31 37 36 41 44 46 51 49 53 42 38 41 34 31 31 30 29 28 27 27 27 24 24 23 22 19 19 20 20 20 20 20 21 18
27 31 36 16 19 26 27 27 29 27 29 37 45 46 42 41 38 37 37 41 35 32 32 32 29 26 26 28 29 25 24 24 21 19 19 19 20 20 20 19 20 21 19
27 37 17 8 11 11 13 17 19 22 29 31 32 32 34 35 38 40 44 38 34 32 32 26 25 26 29 31 26 25 26 24 20 22 22 21 20 19 19 20 18 21 22
24 31 14 6 6 9 11 13 19 25 27 29 31 33 39 44 45 39 33 34 31 30 27 28 27 29 30 29 26 26 24 23 24 23 22 22 20 19 18 18 19 21 24
23 19 23 11 8 13 14 15 19 22 25 26 29 36 39 35 35 31 30 28 26 26 27 25 29 31 31 31 29 28 30 27 24 23 22 19 19 19 20 21 21 22 23
22 18 21 8 13 18 20 20 19 22 28 30 30 30 28 25 24 26 26 22 22 21 20 23 26 27 30 29 30 31 24 24 25 24 24 23 21 21 23 22 22 22 23
23 19 10 12 7 14 20 23 25 27 28 26 24 25 24 25 24 23 19 17 18 19 22 25 25 26 25 25 28 28 25 25 24 24 22 21 25 23 23 20 21 21 23
19 19 11 3 1 12 20 23 26 28 25 24 23 23 22 20 18 17 18 19 20 19 21 22 21 22 23 25 27 25 23 24 25 23 24 28 24 23 18 19 19 21 21
20 17 16 8 10 8 18 21 23 22 21 18 19 19 16 14 14 15 16 16 17 18 18 19 21 21 22 24 25 24 24 25 26 26 25 23 22 17 16 18 19 21 21
22 18 17 14 16 19 20 18 26 26 24 23 22 19 19 19 19 19 18 17 17 18 17 17 17 19 21 22 22 24 23 23 22 19 18 16 15 15 18 19 20 20 22
23 20 19 19 20 24 24 19 26 28 29 28 26 25 23 19 16 15 14 14 15 15 16 17 16 16 18 19 19 17 17 16 15 13 14 15 15 18 18 19 19 21 23
25 20 20 18 22 26 26 25 22 26 28 28 27 26 23 20 15 14 15 18 18 17 17 17 17 16 16 16 15 14 14 14 13 15 15 15 17 17 18 18 20 21 23
31 24 21 19 20 27 28 27 25 27 30 29 27 24 23 20 18 17 18 17 15 15 14 14 14 14 15 15 15 15 14 14 15 16 16 15 17 18 18 21 22 21 23
17 20 19 21 21 28 30 31 30 28 30 27 24 21 22 21 19 18 18 17 16 15 14 14 14 15 15 16 16 15 14 14 15 15 16 17 17 18 20 21 23 23 24
15 13 19 20 21 28 31 33 31 31 28 24 23 21 19 17 18 18 16 15 14 14 14 15 16 16 17 17 15 15 15 15 15 16 16 17 18 19 20 22 24 24 26
14 13 8 10 19 23 24 26 26 25 22 23 22 20 21 23 20 19 16 16 16 16 16 17 17 18 18 17 15 15 15 14 14 15 17 18 20 20 21 21 24 26 27
12 12 13 13 14 17 19 20 21 22 23 23 22 21 21 20 19 19 18 17 17 17 18 18 18 18 18 17 16 15 15 15 16 17 18 19 20 21 22 23 24 26 28
13 16 11 14 12 12 17 19 20 22 23 22 20 20 20 18 18 18 17 17 18 19 19 19 19 19 18 17 16 15 15 16 17 18 20 20 21 22 23 24 25 28 29
11 11 9 8 9 11 12 15 18 18 17 18 20 20 20 19 19 18 18 20 20 20 20 20 19 18 17 17 17 16 16 17 18 19 20 22 23 24 24 25 26 29 30
8 10 11 10 11 12 14 16 17 18 17 19 20 20 19 20 21 21 21 21 21 20 20 20 20 18 17 17 17 16 16 18 19 19 21 22 24 24 25 26 27 30 31
Wind_Direction
266 266 264 261 257 255 255 258 245 244 251 247 253 240 239 225 232 229 229 225 223 223 224 220 222 223 222 236 242 240 240 243 247 250 245 248 247 259 272 279 285 295 298
266 262 259 261 262 259 253 249 253 242 246 255 251 253 236 239 222 224 223 221 218 219 217 215 223 218 218 227 236 237 237 251 255 247 244 248 251 263 275 278 282 287 288
264 274 276 278 261 264 258 250 244 254 242 251 244 250 233 242 224 213 217 215 213 213 214 216 221 205 221 225 231 230 238 247 249 247 246 251 257 264 268 276 286 295 294
268 268 264 263 260 262 260 253 237 244 260 260 246 248 234 226 227 215 215 213 215 213 206 219 203 216 223 225 227 231 237 241 242 242 246 250 256 260 269 274 283 290 292
311 285 263 261 264 262 256 246 243 238 238 249 252 249 239 225 217 210 215 214 212 209 216 194 210 215 216 218 222 226 230 231 233 240 244 246 253 263 268 272 281 286 291
322 326 321 265 253 253 259 233 244 235 240 236 243 243 233 221 205 206 208 216 215 197 183 197 210 213 216 221 225 231 232 233 235 237 240 246 255 261 267 276 280 281 289
313 325 314 292 249 251 249 244 244 244 234 236 230 231 230 223 208 211 215 200 191 183 195 208 211 213 215 220 223 228 229 231 234 238 243 248 254 257 264 272 278 283 289
315 321 310 266 254 251 246 238 238 231 232 232 224 224 226 219 218 211 201 190 184 191 203 208 211 216 222 225 231 237 240 241 242 244 249 253 254 258 266 271 275 283 285
332 346 313 237 241 226 223 210 211 214 217 208 207 210 215 210 201 196 191 187 190 195 205 208 214 220 224 229 233 237 235 236 237 238 244 250 253 259 266 272 279 283 288
345 353 336 207 228 196 201 200 202 200 197 195 196 194 191 190 188 183 185 191 194 201 205 212 218 223 227 236 234 236 229 231 238 243 247 251 256 259 265 278 284 287 291
354 347 358 277 214 189 181 191 189 186 193 193 191 187 181 180 186 188 194 197 204 212 217 218 227 236 243 245 237 227 232 233 236 241 248 250 254 255 267 271 281 287 290
354 355 2 326 200 186 185 188 187 184 186 186 172 175 179 178 181 193 200 204 211 217 228 234 238 242 245 242 231 234 228 229 238 240 247 253 253 261 266 267 278 285 290
351 355 356 9 216 186 191 193 191 192 188 179 172 171 174 178 185 184 186 199 212 218 222 225 228 231 234 234 224 223 225 234 238 245 250 250 261 259 265 273 279 283 289
336 348 346 303 286 206 203 200 196 189 177 170 171 174 176 181 183 186 195 206 214 218 226 233 235 234 236 235 231 225 231 237 238 246 253 262 254 264 264 279 280 284 289
330 329 334 282 230 225 207 189 188 177 179 172 170 181 182 182 188 199 211 221 224 223 229 231 231 234 236 233 232 232 233 238 243 253 263 256 263 261 279 281 281 286 288
314 315 312 293 235 229 234 216 185 186 185 181 179 184 190 195 203 207 209 211 213 216 222 226 234 231 232 234 235 235 240 248 258 259 257 253 255 272 277 279 285 288 292
306 303 295 304 232 229 234 227 203 197 189 187 187 191 199 209 214 213 213 218 226 228 229 229 230 231 232 232 231 232 238 238 240 239 239 252 263 271 275 284 286 290 294
294 287 285 293 237 223 224 220 210 198 193 193 195 202 207 215 223 225 227 229 224 220 219 221 224 221 221 220 220 218 220 226 226 235 249 258 267 276 281 283 287 292 296
282 272 276 281 233 215 218 212 209 204 204 205 209 210 211 219 222 219 218 218 220 221 221 222 220 216 212 212 213 216 215 223 232 246 255 262 270 278 282 288 292 294 295
263 254 268 271 224 213 216 206 210 204 202 205 211 211 221 221 221 221 217 216 218 218 215 220 213 209 211 213 212 216 221 231 244 248 256 265 274 281 286 289 292 296 300
237 239 266 237 211 209 214 207 202 199 202 202 208 219 222 220 216 219 216 215 216 219 218 218 215 209 212 215 210 219 233 233 238 251 261 270 276 280 285 291 295 299 302
216 243 227 187 193 185 183 184 189 192 196 209 215 213 215 213 210 208 206 209 212 214 213 214 213 211 216 221 219 228 236 242 250 259 267 273 278 282 286 291 296 300 303
235 203 189 175 174 165 177 184 195 201 206 211 212 211 214 214 210 210 210 210 213 216 218 220 218 215 218 224 228 227 239 250 256 263 268 273 279 285 290 295 298 302 305
196 181 195 190 191 198 199 201 202 203 206 209 210 212 213 213 215 215 212 212 215 217 217 218 221 218 217 222 231 238 244 254 262 268 274 280 285 289 294 298 301 304 306
193 200 199 199 197 203 209 208 208 209 208 211 213 214 214 214 212 212 213 218 219 219 217 218 222 220 220 229 237 243 250 258 264 271 279 285 289 292 296 298 301 304 307
239 221 217 223 221 218 217 214 216 219 214 216 219 217 215 214 216 217 219 223 223 221 217 217 220 223 227 234 244 252 257 264 271 277 280 283 288 293 295 297 302 304 303